This is the latest recevied weather packets stored in our database for station/object SV9TNF-1. If no packets are shown the sender has not sent any weather packets the latest 10 day(s).
| Time | Temp. | Humidity | Pressure | Rain* | Wind** | Luminosity | Snow |
|---|---|---|---|---|---|---|---|
| 1777913861 | 15.56° C | 63% | 1006.1 hPa | 0 mm | 8.05 m/s, 304° | - | - |
| 1777913561 | 15.56° C | 62% | 1006.1 hPa | 0 mm | 6.71 m/s, 331° | - | - |
| 1777913262 | 16.11° C | 61% | 1006.1 hPa | 0 mm | 8.94 m/s, 298° | - | - |
| 1777912961 | 16.11° C | 61% | 1006.1 hPa | 0 mm | 8.94 m/s, 338° | - | - |
| 1777912661 | 16.11° C | 61% | 1006.1 hPa | 0 mm | 6.71 m/s, 325° | - | - |
| 1777912361 | 16.11° C | 60% | 1006.1 hPa | 0 mm | 8.05 m/s, 323° | - | - |
| 1777912061 | 16.67° C | 60% | 1006.1 hPa | 0 mm | 8.05 m/s, 320° | - | - |
| 1777911761 | 16.67° C | 59% | 1006.1 hPa | 0 mm | 10.28 m/s, 181° | - | - |
| 1777911461 | 16.67° C | 59% | 1006.1 hPa | 0 mm | 14.31 m/s, 306° | - | - |
| 1777911161 | 16.67° C | 57% | 1006.4 hPa | 0 mm | 14.75 m/s, 294° | - | - |
| 1777910861 | 16.67° C | 56% | 1006.4 hPa | 0 mm | 12.96 m/s, 313° | - | - |
| 1777910560 | 17.22° C | 55% | 1006.4 hPa | 0 mm | 12.07 m/s, 270° | - | - |
| 1777910260 | 17.22° C | 55% | 1006.1 hPa | 0 mm | 10.28 m/s, 304° | - | - |
| 1777909961 | 17.22° C | 54% | 1006.1 hPa | 0 mm | 15.2 m/s, 306° | - | - |
| 1777909660 | 17.78° C | 54% | 1006.4 hPa | 0 mm | 8.49 m/s, 324° | - | - |
| 1777909360 | 17.78° C | 53% | 1006.4 hPa | 0 mm | 9.83 m/s, 317° | - | - |
| 1777909060 | 17.78° C | 52% | 1006.4 hPa | 0 mm | 10.73 m/s, 323° | - | - |
| 1777908760 | 18.33° C | 52% | 1006.4 hPa | 0 mm | 10.28 m/s, 350° | - | - |
| 1777908460 | 18.33° C | 51% | 1006.4 hPa | 0 mm | 10.73 m/s, 336° | - | - |
| 1777908160 | 18.33° C | 50% | 1006.4 hPa | 0 mm | 10.28 m/s, 320° | - | - |
| 1777907860 | 18.89° C | 52% | 1006.4 hPa | 0 mm | 6.26 m/s, 303° | - | - |
| 1777907560 | 18.89° C | 50% | 1006.4 hPa | 0 mm | 10.73 m/s, 302° | - | - |
| 1777907259 | 19.44° C | 50% | 1006.4 hPa | 0 mm | 8.49 m/s, 327° | - | - |
| 1777906959 | 19.44° C | 51% | 1006.4 hPa | 0 mm | 9.39 m/s, 308° | - | - |
| 1777906659 | 18.89° C | 51% | 1006.4 hPa | 0 mm | 9.83 m/s, 312° | - | - |
* Rain latest hour (hover to see other rain measurements)
** Current wind speed in m/s (hover to see current wind gust speed)